User: anonymous
Location: Unspecified
(0.0000°N, 0.0000°E)
Time: 13:32:52
(UTC+02:00)
Language:

ARIANE 44L R/B - Orbit

View from above orbital plane
View from above orbital plane
View from above satellite
View from above satellite

Ground track
Ground track

The orbit data is extracted from the following two-line orbital elements,

1 26901U 01039B   14259.48258779  .00011360  00000-0  30720-2 0   976
2 26901 007.2605 284.3385 6981576 054.4209 016.3370 02.66262077116072
Epoch (UTC): 16 September 2014 11:34:55
Eccentricity: 0.6981576
inclination: 7.2605°
perigee height: 259 km
apogee height: 30961 km
right ascension of ascending node: 284.3385°
argument of perigee: 54.4209°
revolutions per day: 2.66262077
mean anomaly at epoch: 16.3370°
orbit number at epoch: 11607

The dashed part of the orbit path shows where the satellite is in the earth's shadow,  

DLR